Location: Newark
(33.6439°N, 114.9881°W)
Time: 03:09:26
(UTC+00:00)

N. Korean satellite - Pass Details

Date: 25 March 2019
Orbit: 457 x 508 km, 97.2° (Epoch: 19 April)

Event Time Altitude Azimuth Distance (km) Brightness Sun altitude
Rises 12:52:58 0° 33° (NNE) 2,541 10.9 -10.0°
Reaches altitude 10° 12:55:40 10° 56° (NE) 1,668 10.4 -9.4°
Maximum altitude 12:57:55 16° 95° (E) 1,346 10.1 -9.0°
Drops below altitude 10° 13:00:12 10° 134° (SE) 1,678 9.9 -8.5°
Sets 13:02:55 0° 157° (SSE) 2,565 10.5 -7.9°
